Stündliche Wetter Kyzylzhar

Heute, 8 Mai, Samstag

Zeit Temperatur Niederschläge Wind Luftdruck Luftfeuchtigkeit
00:00 +11°C° 0 mm 4 m/S 722 mmHg 46%
01:00 +11°C° 0 mm 4 m/S 722 mmHg 48%
02:00 +9°C° 0 mm 5 m/S 722 mmHg 50%
03:00 +9°C° 0 mm 5 m/S 722 mmHg 51%
04:00 +10°C° 0 mm 5 m/S 722 mmHg 51%
05:00 +10°C° 0 mm 5 m/S 722 mmHg 49%
06:00 +10°C° 0 mm 5 m/S 722 mmHg 48%
07:00 +12°C° 0 mm 5 m/S 722 mmHg 46%
08:00 +13°C° 0 mm 5 m/S 722 mmHg 44%
09:00 +15°C° 0 mm 6 m/S 722 mmHg 44%
10:00 +16°C° 0 mm 6 m/S 722 mmHg 44%
11:00 +17°C° 0 mm 6 m/S 722 mmHg 50%
12:00 +17°C° 0.4 mm 6 m/S 722 mmHg 55%
13:00 +17°C° 0.4 mm 6 m/S 722 mmHg 60%
14:00 +17°C° 0.4 mm 5 m/S 721 mmHg 65%
15:00 +19°C° 0.1 mm 5 m/S 721 mmHg 62%
16:00 +19°C° 0.1 mm 5 m/S 721 mmHg 59%
17:00 +20°C° 0.1 mm 5 m/S 720 mmHg 56%
18:00 +19°C° 0.2 mm 5 m/S 720 mmHg 62%
19:00 +17°C° 0.2 mm 5 m/S 719 mmHg 67%
20:00 +17°C° 0.2 mm 4 m/S 719 mmHg 73%
21:00 +15°C° 0.3 mm 4 m/S 719 mmHg 75%
22:00 +15°C° 0.3 mm 4 m/S 718 mmHg 77%
23:00 +14°C° 0.3 mm 4 m/S 718 mmHg 79%

Morgen, 9 Mai, Sonntag

Zeit Temperatur Niederschläge Wind Luftdruck Luftfeuchtigkeit
00:00 +14°C° 0.2 mm 4 m/S 718 mmHg 76%
01:00 +14°C° 0.2 mm 4 m/S 717 mmHg 74%
02:00 +15°C° 0.2 mm 5 m/S 717 mmHg 71%
03:00 +14°C° 0 mm 4 m/S 717 mmHg 72%
04:00 +14°C° 0 mm 3 m/S 717 mmHg 73%
05:00 +13°C° 0 mm 3 m/S 716 mmHg 74%
06:00 +16°C° 0.1 mm 3 m/S 717 mmHg 69%
07:00 +17°C° 0.1 mm 3 m/S 717 mmHg 63%
08:00 +19°C° 0.1 mm 3 m/S 717 mmHg 58%
09:00 +18°C° 0.5 mm 4 m/S 717 mmHg 64%
10:00 +18°C° 0.5 mm 4 m/S 717 mmHg 70%
11:00 +16°C° 0.5 mm 5 m/S 717 mmHg 76%
12:00 +15°C° 2.5 mm 5 m/S 716 mmHg 81%
13:00 +15°C° 2.5 mm 4 m/S 716 mmHg 87%
14:00 +14°C° 2.5 mm 4 m/S 716 mmHg 92%
15:00 +14°C° 0.8 mm 4 m/S 716 mmHg 89%
16:00 +15°C° 0.8 mm 4 m/S 715 mmHg 85%
17:00 +15°C° 0.8 mm 5 m/S 715 mmHg 82%
18:00 +14°C° 0.1 mm 4 m/S 715 mmHg 83%
19:00 +14°C° 0.1 mm 3 m/S 715 mmHg 84%
20:00 +14°C° 0.1 mm 2 m/S 715 mmHg 85%
21:00 +14°C° 0.3 mm 2 m/S 714 mmHg 86%
22:00 +12°C° 0.3 mm 3 m/S 714 mmHg 88%
23:00 +12°C° 0.3 mm 3 m/S 713 mmHg 89%

übermorgen, 10 Mai, Montag

Zeit Temperatur Niederschläge Wind Luftdruck Luftfeuchtigkeit
00:00 +12°C° 0.2 mm 3 m/S 713 mmHg 91%
01:00 +11°C° 0.2 mm 3 m/S 713 mmHg 92%
02:00 +11°C° 0.2 mm 3 m/S 713 mmHg 93%
03:00 +11°C° 0 mm 3 m/S 714 mmHg 93%
04:00 +11°C° 0 mm 3 m/S 714 mmHg 93%
05:00 +12°C° 0 mm 2 m/S 714 mmHg 93%
06:00 +13°C° 0 mm 2 m/S 714 mmHg 88%
07:00 +13°C° 0 mm 2 m/S 714 mmHg 83%
08:00 +14°C° 0 mm 2 m/S 715 mmHg 78%
09:00 +15°C° 0.2 mm 2 m/S 715 mmHg 73%
10:00 +16°C° 0.2 mm 2 m/S 715 mmHg 69%
11:00 +17°C° 0.2 mm 2 m/S 715 mmHg 64%
12:00 +17°C° 0.6 mm 3 m/S 715 mmHg 65%
13:00 +17°C° 0.6 mm 3 m/S 715 mmHg 65%
14:00 +17°C° 0.6 mm 4 m/S 716 mmHg 66%
15:00 +17°C° 0.5 mm 4 m/S 716 mmHg 68%
16:00 +16°C° 0.5 mm 5 m/S 716 mmHg 69%
17:00 +16°C° 0.5 mm 5 m/S 716 mmHg 71%
18:00 +14°C° 0.2 mm 6 m/S 716 mmHg 74%
19:00 +11°C° 0.2 mm 7 m/S 717 mmHg 77%
20:00 +8°C° 0.2 mm 9 m/S 717 mmHg 80%
21:00 +9°C° 0 mm 8 m/S 718 mmHg 77%
22:00 +9°C° 0 mm 8 m/S 718 mmHg 73%
23:00 +9°C° 0 mm 8 m/S 718 mmHg 70%

11 Mai, Dienstag

Zeit Temperatur Niederschläge Wind Luftdruck Luftfeuchtigkeit
00:00 +9°C° 0 mm 7 m/S 719 mmHg 67%
01:00 +9°C° 0 mm 7 m/S 719 mmHg 63%
02:00 +9°C° 0 mm 7 m/S 719 mmHg 60%
03:00 +8°C° 0 mm 6 m/S 719 mmHg 61%
04:00 +8°C° 0 mm 6 m/S 720 mmHg 61%
05:00 +8°C° 0 mm 6 m/S 720 mmHg 62%
06:00 +9°C° 0 mm 7 m/S 721 mmHg 59%
07:00 +10°C° 0 mm 7 m/S 721 mmHg 55%
08:00 +10°C° 0 mm 8 m/S 722 mmHg 52%
09:00 +12°C° 0 mm 8 m/S 722 mmHg 48%
10:00 +13°C° 0 mm 8 m/S 722 mmHg 43%
11:00 +15°C° 0 mm 7 m/S 723 mmHg 39%
12:00 +15°C° 0 mm 7 m/S 723 mmHg 38%
13:00 +16°C° 0 mm 7 m/S 723 mmHg 36%
14:00 +16°C° 0 mm 7 m/S 723 mmHg 35%
15:00 +16°C° 0 mm 7 m/S 724 mmHg 36%
16:00 +16°C° 0 mm 7 m/S 724 mmHg 37%
17:00 +15°C° 0 mm 6 m/S 724 mmHg 37%
18:00 +14°C° 0 mm 6 m/S 724 mmHg 42%
19:00 +13°C° 0 mm 5 m/S 725 mmHg 47%
20:00 +12°C° 0 mm 4 m/S 725 mmHg 52%
21:00 +11°C° 0 mm 3 m/S 725 mmHg 54%
22:00 +10°C° 0 mm 3 m/S 725 mmHg 56%
23:00 +10°C° 0 mm 3 m/S 725 mmHg 58%

12 Mai, Mittwoch

Zeit Temperatur Niederschläge Wind Luftdruck Luftfeuchtigkeit
00:00 +9°C° 0 mm 2 m/S 725 mmHg 58%
01:00 +9°C° 0 mm 2 m/S 725 mmHg 58%
02:00 +10°C° 0 mm 1 m/S 725 mmHg 58%
03:00 +10°C° 0 mm 1 m/S 726 mmHg 59%
04:00 +10°C° 0 mm 1 m/S 726 mmHg 60%
05:00 +10°C° 0 mm 1 m/S 726 mmHg 61%
06:00 +10°C° 0 mm 2 m/S 726 mmHg 58%
07:00 +12°C° 0 mm 2 m/S 726 mmHg 54%
08:00 +13°C° 0 mm 2 m/S 726 mmHg 51%
09:00 +14°C° 0 mm 3 m/S 726 mmHg 46%
10:00 +16°C° 0 mm 3 m/S 726 mmHg 42%
11:00 +17°C° 0 mm 3 m/S 726 mmHg 37%
12:00 +18°C° 0 mm 3 m/S 725 mmHg 36%
13:00 +19°C° 0 mm 3 m/S 725 mmHg 34%
14:00 +19°C° 0 mm 3 m/S 724 mmHg 32%
15:00 +19°C° 0 mm 4 m/S 724 mmHg 32%
16:00 +19°C° 0 mm 4 m/S 724 mmHg 33%
17:00 +19°C° 0 mm 5 m/S 723 mmHg 33%
18:00 +18°C° 0 mm 4 m/S 723 mmHg 38%
19:00 +17°C° 0 mm 3 m/S 723 mmHg 42%
20:00 +16°C° 0 mm 3 m/S 723 mmHg 47%
21:00 +14°C° 0 mm 3 m/S 722 mmHg 53%
22:00 +13°C° 0 mm 4 m/S 722 mmHg 60%
23:00 +12°C° 0 mm 5 m/S 722 mmHg 66%

13 Mai, Donnerstag

Zeit Temperatur Niederschläge Wind Luftdruck Luftfeuchtigkeit
00:00 +12°C° 0.2 mm 4 m/S 722 mmHg 71%
01:00 +11°C° 0.2 mm 3 m/S 722 mmHg 76%
02:00 +10°C° 0.2 mm 2 m/S 721 mmHg 80%
03:00 +10°C° 0.1 mm 3 m/S 721 mmHg 82%
04:00 +8°C° 0.1 mm 4 m/S 721 mmHg 83%
05:00 +7°C° 0.1 mm 5 m/S 722 mmHg 84%
06:00 +8°C° 0 mm 5 m/S 722 mmHg 79%
07:00 +8°C° 0 mm 6 m/S 722 mmHg 73%
08:00 +9°C° 0 mm 6 m/S 722 mmHg 68%
09:00 +9°C° 0 mm 6 m/S 722 mmHg 69%
10:00 +9°C° 0 mm 6 m/S 722 mmHg 70%
11:00 +9°C° 0 mm 6 m/S 722 mmHg 71%
12:00 +10°C° 0.1 mm 6 m/S 722 mmHg 70%
13:00 +10°C° 0.1 mm 6 m/S 722 mmHg 69%
14:00 +11°C° 0.1 mm 6 m/S 722 mmHg 68%
15:00 +11°C° 0.2 mm 6 m/S 722 mmHg 66%
16:00 +11°C° 0.2 mm 6 m/S 722 mmHg 65%
17:00 +13°C° 0.2 mm 6 m/S 723 mmHg 63%
18:00 +11°C° 0.2 mm 6 m/S 723 mmHg 67%
19:00 +10°C° 0.2 mm 5 m/S 723 mmHg 70%
20:00 +9°C° 0.2 mm 5 m/S 724 mmHg 74%
21:00 +9°C° 0 mm 5 m/S 724 mmHg 73%
22:00 +10°C° 0 mm 4 m/S 724 mmHg 72%
23:00 +10°C° 0 mm 4 m/S 724 mmHg 70%
Mehr zeigen

Wir brauchen deine Erlaubnis

Meteoprog und unser Service Anbieter werden persönliche Daten aufbewahren, so wie Cookies, Geräte Bezeichnung oder ähnliche Technologien von deinem Gerät und Prozess, so wie Persönliche Daten Inhalte und Werbungen, genauso wie social Media und den Verkehr zu analysieren.

  • Aufbewahrung und/oder Zugang zu deiner Geräte Informationen.

    Cookies, Geräte Bezeichnung oder andere Informationen, können aufbewahrt oder Zugang zu deinem Gerät erhalten, für den Grund, der oben angegeben wird.

  • Personalisierte Werbung und Inhalte, Messungen, Einblick in das Publikum und Produkt Entwicklung.

    Werbungen und Inhalte können personalisiert werden, basierend auf ein Profil. Mehr Daten können besser personalisierte Werbungen und Inhalte hinzufügen. Werbung und Inhalte können gezeigt und gemessen werden. Einblicke über das Publikum, welche die Werbung gesehen haben und den Inhalt, können abgeleitet werden. So wie Daten können genutzt werden, um es zu verbessern oder die Benutzer Erfahrung zu verbessern das System und die Software.

Wenn du “Ich stimme zu” klickst, erlaubst du uns, die Cookies zu benutzen die Geräte Bezeichnung, den Web oder ähnliche Technologien zu benutzen. Deine Settings, können in deinem Gerät bei deinem Browser geändert werden.

Für den bestimmten Zweck, berechtigten Interessen beruhen darauf, mehr als auf den Inhalt. Du kannst mehr darüber in unseren Privaten und Cookie Politik lesen.